Location: *
(2.5500°S, 65.9667°W)
Time: 10:12:53
(UTC+00:00)

SRMSAT - Pass Details

Date: 30 June 2022
Orbit: 848 x 865 km, 20.0° (Epoch: 14 August)

Event Time Altitude Azimuth Distance (km) Brightness Sun altitude
Exits shadow 07:05:56 12° 55° (NE) 2,340 ? -46.5°
Drops below altitude 10° 07:06:28 10° 59° (ENE) 2,457 ? -46.4°
Sets 07:09:51 0° 78° (ENE) 3,396 ? -45.7°
